Regional Weather Roundup
Issued by NWS

Current Version | Previous Version | Text Only | Print | Product List | Glossary On
Versions: 1 2 3 4 5 6 7 8 9 10 11 12 13 14 15 16 17 18 19 20 21 22 23 24 25 26 27 28 29 30 31 32 33 34 35 36 37 38 39 40 41 42 43 44 45 46 47 48 49 50
000
ASUS44 KFWD 021215
RWRTX
NORTH TEXAS HOURLY WEATHER ROUNDUP
NATIONAL WEATHER SERVICE FORT WORTH TX
600 AM CST THU FEB 02 2023

NOTE: "FAIR" INDICATES FEW OR NO CLOUDS BELOW 12,000 FEET WITH NO
SIGNIFICANT WEATHER AND/OR OBSTRUCTIONS TO VISIBILITY.

TXZ118-119-021300-
DALLAS/FORT WORTH METROPLEX

CITY           SKY/WX    TMP DP  RH WIND       PRES   REMARKS
DFW AIRPORT    FRZ RAIN  32  29  88 N9        30.28R WCI  24
6HR MIN TEMP:  31; 6HR MAX TEMP:  32; 6HR PCP:  0.16;

DALLAS LOVE    FRZ RAIN  32  29  88 NW8       30.29R FOG     WCI  25
6HR MIN TEMP:  31; 6HR MAX TEMP:  32; 6HR PCP:  0.14;

FTW MEACHAM    FRZ RAIN  30  29  96 N8        30.26F WCI  22
6HR MIN TEMP:  30; 6HR MAX TEMP:  30;

DAL-EXECUTIVE  MIX PCPN  31  30  96 N8        30.26R FOG     WCI  23
6HR MIN TEMP:  31; 6HR MAX TEMP:  31; 6HR PCP:  0.21;

FTW-ALLIANCE   FRZ RAIN  31  28  89 NE5       30.27R WCI  26
6HR MIN TEMP:  30; 6HR MAX TEMP:  31; 6HR PCP:  0.06;

FTW-NAS-JRB    FRZ RAIN  30  27  88 N7        30.27F WCI  23
6HR MIN TEMP:  30; 6HR MAX TEMP:  31; 6HR PCP:  0.13;

FTW-SPINKS     CLOUDY    31  29  93 N7        30.27F FOG     WCI  25
ARLINGTON      MIX PCPN  32  29  88 NW12      30.26F WCI  23
6HR MIN TEMP:  31; 6HR MAX TEMP:  32; 6HR PCP:  0.14;

GRAND PRAIRIE  CLOUDY    32  32 100 NW3       30.30R
6HR MIN TEMP:  31; 6HR MAX TEMP:  32; 6HR PCP:  0.13;

ADDISON        FRZ RAIN  32  30  93 N6        30.29  FOG     WCI  26
MESQUITE       CLOUDY    32  32 100 CALM      30.29R
6HR MIN TEMP:  32; 6HR MAX TEMP:  32; 6HR PCP:  0.15;

$$

TXZ091>094-102>105-117-120-121-131>134-021300-
NORTH CENTRAL TEXAS

CITY           SKY/WX    TMP DP  RH WIND       PRES   REMARKS
SHRMAN/DENISON MIX PCPN  31  28  90 N5        30.28R WCI  26
6HR MIN TEMP:  31; 6HR MAX TEMP:  32; 6HR PCP:  0.02;

GAINESVILLE    DRIZZLE   29  26  87 N5        30.29F WCI  24
6HR MIN TEMP:  29; 6HR MAX TEMP:  29;

BOWIE          MIX PCPN  29  26  87 N5        30.26S WCI  24
6HR MIN TEMP:  28; 6HR MAX TEMP:  29;

BRIDGEPORT     MIX PCPN  30  27  89 N3        30.29S
6HR MIN TEMP:  29; 6HR MAX TEMP:  30;

DECATUR        MOCLDY    29  26  88 CALM      30.26R
6HR MIN TEMP:  28; 6HR MAX TEMP:  29;

DENTON         MIX PCPN  30  26  85 N7        30.29R WCI  23
6HR MIN TEMP:  30; 6HR MAX TEMP:  30; 6HR PCP:  0.02;

MCKINNEY       FRZ RAIN  31  30  96 NW5       30.30R WCI  26
6HR MIN TEMP:  31; 6HR MAX TEMP:  32; 6HR PCP:  0.15;

BONHAM         MIX PCPN  31  30  97 NW7       30.28R FOG     WCI  24
6HR MIN TEMP:  30; 6HR MAX TEMP:  31; 6HR PCP:  0.06;

GREENVILLE     LGT RAIN  32  31  97 CALM      30.27R FOG
6HR MIN TEMP:  32; 6HR MAX TEMP:  32;

ROCKWALL       DRIZZLE   32  32 100 N3        30.29R
6HR MIN TEMP:  32; 6HR MAX TEMP:  32; 6HR PCP:  0.11;

TERRELL        RAIN      33  30  88 N7        30.28R FOG     WCI  27
6HR MIN TEMP:  32; 6HR MAX TEMP:  33;

CLEBURNE       CLOUDY    30  30 100 MISG      30.24F FOG
GRANBURY       MIX PCPN  30  28  94 N6        30.27F WCI  24
6HR MIN TEMP:  29; 6HR MAX TEMP:  30; 6HR PCP:  0.15;

$$

TXZ083>090-098>101-113>116-127>130-139>142-154-155-021300-
WESTERN NORTH TEXAS

CITY           SKY/WX    TMP DP  RH WIND       PRES   REMARKS
WICHITA FALLS  FRZ RAIN  30  27  88 NW7       30.26F WCI  23
6HR MIN TEMP:  29; 6HR MAX TEMP:  30; 6HR PCP: TRACE;

VERNON         CLOUDY    32  30  93 MISG      30.27F
6HR MIN TEMP:  31; 6HR MAX TEMP:  32; 6HR PCP:  0.02;

ABILENE        CLOUDY    31  28  89 N5        30.23S WCI  26
6HR MIN TEMP:  30; 6HR MAX TEMP:  31; 6HR PCP:  0.04;

ABILENE-DYESS  CLOUDY    30  27  87 CALM      30.20F
6HR MIN TEMP:  29; 6HR MAX TEMP:  30; 6HR PCP:  0.03;

GRAHAM         CLOUDY    29  26  89 CALM      30.26R
BRECKENRIDGE   CLOUDY    31  31 100 N3        30.25R
6HR MIN TEMP:  30; 6HR MAX TEMP:  31;

EASTLAND       FLURRIES  27  26  94 MISG      30.25R
6HR MIN TEMP:  26; 6HR MAX TEMP:  28; 6HR PCP:  0.05;

RANGER         MIX PCPN  29  28  98 E5        30.23R WCI  24
6HR MIN TEMP:  28; 6HR MAX TEMP:  29;

MINERAL WELLS  MIX PCPN  30  25  81 CALM      30.24F
6HR MIN TEMP:  29; 6HR MAX TEMP:  30; 6HR PCP:  0.06;

STEPHENVILLE   CLOUDY    30  27  89 NW6       30.29R WCI  24
6HR MIN TEMP:  28; 6HR MAX TEMP:  30; 6HR PCP:  0.14;

COMANCHE       LGT RAIN  31  31 100 MISG      30.24F
6HR MIN TEMP:  30; 6HR MAX TEMP:  31;

BROWNWOOD      CLOUDY    32  28  86 N7        30.24S WCI  26
COLEMAN        CLOUDY    32  30  92 N7        30.23S WCI  25
6HR MIN TEMP:  31; 6HR MAX TEMP:  32; 6HR PCP:  0.08;

BRADY          CLOUDY    30  28  93 N5        30.20R WCI  25
SAN SABA       CLOUDY    32  31  94 N6        30.24F WCI  26
6HR MIN TEMP:  31; 6HR MAX TEMP:  32;

$$

TXZ143>147-156>162-174-175-021300-
CENTRAL TEXAS

CITY           SKY/WX    TMP DP  RH WIND       PRES   REMARKS
WACO           CLOUDY    31  31 100 NW7       30.27R WCI  24
6HR MIN TEMP:  30; 6HR MAX TEMP:  31; 6HR PCP:  0.74;

WACO-MCGREGOR  CLOUDY    32  31  96 N10       30.25R WCI  24
6HR MIN TEMP:  31; 6HR MAX TEMP:  32; 6HR PCP:  0.61;

HILLSBORO      LGT RAIN  32  32 100 N7        30.23F WCI  26
6HR MIN TEMP:  32; 6HR MAX TEMP:  32; 6HR PCP:  0.14;

MEXIA          LGT SNOW  33  32  98 N10       30.23R WCI  25
6HR MIN TEMP:  33; 6HR MAX TEMP:  33; 6HR PCP:  0.66;

CAMERON        LGT RAIN  33  32  98 N12       30.24R WCI  24
6HR MIN TEMP:  32; 6HR MAX TEMP:  33;

TEMPLE         CLOUDY    32  32 100 N8        30.24R WCI  25
6HR MIN TEMP:  31; 6HR MAX TEMP:  32; 6HR PCP:  0.56;

KILLEEN        FRZ RAIN  31  31  97 N10       30.22R WCI  23
6HR MIN TEMP:  30; 6HR MAX TEMP:  31; 6HR PCP:  0.32;

KILLEEN-SKYLRK FLURRIES  32  32 100 NW9       30.24R WCI  24
6HR MIN TEMP:  31; 6HR MAX TEMP:  32; 6HR PCP:  0.33;

FORT HOOD      MIX PCPN  32  31  97 CALM      30.23R
6HR MIN TEMP:  31; 6HR MAX TEMP:  32; 6HR PCP:  0.32;

GATESVILLE       N/A     32  32 100 MISG      30.26R
HAMILTON       MIX PCPN  31  31 100 N12       30.24R WCI  22
6HR MIN TEMP:  31; 6HR MAX TEMP:  32;

LAMPASAS         N/A    N/A N/A N/A MISG        N/A
$$

TXZ095>097-106>112-122>126-135>138-148>153-164>167-021300-
EAST TEXAS

CITY           SKY/WX    TMP DP  RH WIND       PRES   REMARKS
PARIS          MIX PCPN N/A N/A N/A N6        30.26F
                                      6HR PCP:  0.13;

MOUNT PLEASANT FLURRIES  34  34  99 NE8       30.25F WCI  27
6HR MIN TEMP:  33; 6HR MAX TEMP:  34; 6HR PCP:  0.22;

GILMER         RAIN      34  32  94 N9        30.20F WCI  26
MINEOLA        LGT RAIN  34  32  93 N5        30.25F WCI  30
TYLER          RAIN      34  32  92 NW8       30.23R WCI  27
6HR MIN TEMP:  33; 6HR MAX TEMP:  34; 6HR PCP:  0.40;

LONGVIEW       LGT RAIN  35  33  92 MISG      30.23F FOG
6HR MIN TEMP:  34; 6HR MAX TEMP:  35; 6HR PCP:  0.52;

ATHENS         FLURRIES  32  32 100 N7        30.24R WCI  26
JACKSONVILLE   LGT SNOW  33  33 100 N8        30.19S WCI  26
6HR MIN TEMP:  33; 6HR MAX TEMP:  34; 6HR PCP:  0.36;

CENTER         LGT RAIN  36  34  93 N9        30.20S WCI  29
NACOGDOCHES    CLOUDY    36  36 100 N8        30.19F THUNDER FOG
6HR MIN TEMP:  35; 6HR MAX TEMP:  36; 6HR PCP:  0.28;

LUFKIN         LGT RAIN  37  36  96 W6G16     30.22R WCI  32
6HR MIN TEMP:  37; 6HR MAX TEMP:  38; 6HR PCP:  0.09;

$$

SUPPLEMENTAL OBSERVATIONS (NWS FORT WORTH AREA)

CITY           SKY/WX    TMP DP  RH WIND       PRES   REMARKS
LBJ GRASSLAND    N/A     30  27  86 N2          N/A
$$

SUPPLEMENTAL OBSERVATIONS (NWS NORMAN AREA)

CITY           SKY/WX    TMP DP  RH WIND       PRES   REMARKS
GOODLETT         N/A     31  30  96 CALM      30.23
ODELL            N/A     29  28  94 CALM      30.27F
CROWELL          N/A     30  30 100 NE3       30.26S
KNOX CITY        N/A     31  29  94 CALM      30.24
SEYMOUR          N/A     30  27  88 CALM      30.26S
$$

SUPPLEMENTAL OBSERVATIONS (NWS SAN ANGELO AREA)

CITY           SKY/WX    TMP DP  RH WIND       PRES   REMARKS
WEINERT          N/A     30  28  92 CALM      30.25S
HASKELL          N/A     30  29  94 CALM      30.22
THROCKMORTON     N/A     28  28  98 CALM      30.25
STAMFORD         N/A     30  30  99 CALM      30.25
CLYDE            N/A     29  28  96 CALM      30.24S
IVIE RESERVOIR   N/A     32  28  86 N2


USA.gov is the U.S. government's official web portal to all federal, state and local government web resources and services.